AAL246 KORD-KCMH

Flight info

Callsign AAL246
Flight time 0h 46m
Altitude 31000
Route MOBLE ADIME SEWTO FWA BRYEN DUBLN1
Aircraft A320/M-SDE3FGHIRWY/LB1

Departure

Time 2026-05-09 01:43
Airport Chicago O'Hare International Airport (KORD)

Arrival

Time 2026-05-09 02:30
Airport John Glenn Columbus International Airport (KCMH)
Time Latitude Longitude Altitude Speed Heading
2026-05-09 01:16 41.98083 -87.90687 669 ft 0 kts 99°
2026-05-09 01:25 41.98083 -87.90688 669 ft 1 kts 99°
2026-05-09 01:25 41.98086 -87.90709 669 ft 2 kts 101°
2026-05-09 01:25 41.98089 -87.90730 669 ft 2 kts 104°
2026-05-09 01:26 41.98094 -87.90752 668 ft 2 kts 112°
2026-05-09 01:26 41.98101 -87.90771 664 ft 2 kts 148°
2026-05-09 01:26 41.98114 -87.90778 667 ft 1 kts 176°
2026-05-09 01:26 41.98116 -87.90778 667 ft 0 kts 176°
2026-05-09 01:27 41.98114 -87.90778 667 ft 1 kts 176°
2026-05-09 01:27 41.98111 -87.90778 666 ft 0 kts 176°
2026-05-09 01:27 41.98122 -87.90771 668 ft 3 kts 300°
2026-05-09 01:28 41.98121 -87.90766 668 ft 0 kts 334°
2026-05-09 01:33 41.98126 -87.90769 666 ft 5 kts 334°
2026-05-09 01:33 41.98208 -87.90792 669 ft 17 kts 352°
2026-05-09 01:34 41.98287 -87.90705 668 ft 18 kts 88°
2026-05-09 01:34 41.98288 -87.90504 668 ft 23 kts 90°
2026-05-09 01:34 41.98288 -87.90283 669 ft 24 kts 90°
2026-05-09 01:34 41.98287 -87.90049 669 ft 26 kts 89°
2026-05-09 01:35 41.98287 -87.89807 670 ft 26 kts 90°
2026-05-09 01:35 41.98277 -87.89566 670 ft 22 kts 117°
2026-05-09 01:35 41.98163 -87.89412 669 ft 24 kts 135°
2026-05-09 01:35 41.98055 -87.89341 668 ft 16 kts 212°
2026-05-09 01:36 41.97971 -87.89474 669 ft 24 kts 229°
2026-05-09 01:36 41.97811 -87.89527 669 ft 25 kts 179°
2026-05-09 01:36 41.97625 -87.89525 669 ft 28 kts 179°
2026-05-09 01:36 41.97425 -87.89533 669 ft 29 kts 192°
2026-05-09 01:37 41.97281 -87.89706 669 ft 29 kts 238°
2026-05-09 01:37 41.97204 -87.89955 669 ft 30 kts 268°
2026-05-09 01:37 41.97170 -87.90126 669 ft 16 kts 195°
2026-05-09 01:37 41.97058 -87.90151 669 ft 18 kts 224°
2026-05-09 01:38 41.97040 -87.90384 668 ft 31 kts 269°
2026-05-09 01:38 41.97039 -87.90652 668 ft 29 kts 270°
2026-05-09 01:38 41.97039 -87.90917 668 ft 27 kts 270°
2026-05-09 01:38 41.97040 -87.91178 669 ft 29 kts 270°
2026-05-09 01:39 41.97039 -87.91454 670 ft 30 kts 270°
2026-05-09 01:39 41.97038 -87.91744 669 ft 27 kts 269°
2026-05-09 01:39 41.97038 -87.91968 669 ft 20 kts 270°
2026-05-09 01:39 41.97007 -87.92076 667 ft 0 kts 198°
2026-05-09 01:41 41.97006 -87.92076 667 ft 0 kts 198°
2026-05-09 01:42 41.96961 -87.92078 669 ft 14 kts 166°
2026-05-09 01:42 41.96901 -87.91994 669 ft 0 kts 93°
2026-05-09 01:42 41.96902 -87.91898 669 ft 39 kts 89°
2026-05-09 01:43 41.96902 -87.91226 670 ft 102 kts 89°
2026-05-09 01:43 41.96904 -87.90036 672 ft 150 kts 90°
2026-05-09 01:43 41.96890 -87.88572 1065 ft 158 kts 99°
2026-05-09 01:43 41.96671 -87.87117 1616 ft 160 kts 105°
2026-05-09 01:44 41.96406 -87.85648 2127 ft 163 kts 105°
2026-05-09 01:44 41.96145 -87.84115 2498 ft 179 kts 97°
2026-05-09 01:44 41.96055 -87.82339 2812 ft 203 kts 93°
2026-05-09 01:44 41.96017 -87.80340 3122 ft 225 kts 91°
2026-05-09 01:45 41.95990 -87.78149 3450 ft 246 kts 91°
2026-05-09 01:45 41.95960 -87.75744 3850 ft 269 kts 91°
2026-05-09 01:45 41.95926 -87.73183 4593 ft 278 kts 91°
2026-05-09 01:45 41.95889 -87.70589 5434 ft 283 kts 91°
2026-05-09 01:46 41.95845 -87.67892 6293 ft 288 kts 91°
2026-05-09 01:46 41.95798 -87.65213 7094 ft 293 kts 90°
2026-05-09 01:46 41.95746 -87.62455 7896 ft 298 kts 90°
2026-05-09 01:46 41.95691 -87.59660 8688 ft 302 kts 90°
2026-05-09 01:47 41.95637 -87.56810 9477 ft 307 kts 90°
2026-05-09 01:47 41.95582 -87.53914 10183 ft 314 kts 90°
2026-05-09 01:47 41.95525 -87.50880 10422 ft 337 kts 90°
2026-05-09 01:47 41.95464 -87.47640 10742 ft 354 kts 90°
2026-05-09 01:48 41.95399 -87.44312 11357 ft 359 kts 90°
2026-05-09 01:48 41.95328 -87.40936 12034 ft 363 kts 90°
2026-05-09 01:48 41.95254 -87.37527 12728 ft 367 kts 90°
2026-05-09 01:48 41.95179 -87.34077 13422 ft 371 kts 90°
2026-05-09 01:49 41.95102 -87.30591 14004 ft 376 kts 90°
2026-05-09 01:49 41.95024 -87.27062 14577 ft 381 kts 90°
2026-05-09 01:49 41.94946 -87.23487 15152 ft 385 kts 90°
2026-05-09 01:49 41.94867 -87.19867 15715 ft 389 kts 91°
2026-05-09 01:50 41.94787 -87.16216 16275 ft 394 kts 91°
2026-05-09 01:50 41.94702 -87.12521 16839 ft 398 kts 91°
2026-05-09 01:50 41.94355 -87.08816 17397 ft 402 kts 106°
2026-05-09 01:50 41.93239 -87.05380 17949 ft 404 kts 123°
2026-05-09 01:51 41.91774 -87.02144 18489 ft 407 kts 124°
2026-05-09 01:51 41.90281 -86.98894 18992 ft 411 kts 124°
2026-05-09 01:51 41.88767 -86.95622 19510 ft 415 kts 124°
2026-05-09 01:51 41.87251 -86.92346 20011 ft 420 kts 125°
2026-05-09 01:52 41.85682 -86.88956 20514 ft 425 kts 125°
2026-05-09 01:52 41.84122 -86.85575 21005 ft 429 kts 125°
2026-05-09 01:52 41.82546 -86.82150 21493 ft 433 kts 125°
2026-05-09 01:52 41.80961 -86.78695 21973 ft 437 kts 125°
2026-05-09 01:53 41.79362 -86.75211 22467 ft 441 kts 126°
2026-05-09 01:53 41.77746 -86.71700 22949 ft 445 kts 126°
2026-05-09 01:53 41.76112 -86.68152 23420 ft 449 kts 126°
2026-05-09 01:53 41.74463 -86.64579 23817 ft 453 kts 126°
2026-05-09 01:54 41.72798 -86.60983 24221 ft 456 kts 127°
2026-05-09 01:54 41.71124 -86.57370 24591 ft 459 kts 127°
2026-05-09 01:54 41.69436 -86.53730 24964 ft 462 kts 127°
2026-05-09 01:54 41.67733 -86.50068 25340 ft 465 kts 127°
2026-05-09 01:55 41.66020 -86.46389 25718 ft 468 kts 128°
2026-05-09 01:55 41.64292 -86.42685 26092 ft 471 kts 128°
2026-05-09 01:55 41.62555 -86.38960 26455 ft 474 kts 128°
2026-05-09 01:55 41.60809 -86.35215 26814 ft 476 kts 128°
2026-05-09 01:56 41.59046 -86.31443 27178 ft 479 kts 128°
2026-05-09 01:56 41.57276 -86.27665 27535 ft 481 kts 129°
2026-05-09 01:56 41.55513 -86.23897 28275 ft 474 kts 129°
2026-05-09 01:56 41.53797 -86.20227 28846 ft 472 kts 129°
2026-05-09 01:57 41.52061 -86.16527 29408 ft 470 kts 130°
2026-05-09 01:57 41.50290 -86.12769 29839 ft 471 kts 130°
2026-05-09 01:57 41.48544 -86.09078 30095 ft 475 kts 130°
2026-05-09 01:57 41.46776 -86.05344 30394 ft 478 kts 130°
2026-05-09 01:58 41.45019 -86.01630 30704 ft 481 kts 130°
2026-05-09 01:58 41.43210 -85.97807 30846 ft 485 kts 130°
2026-05-09 01:58 41.39608 -85.90200 30868 ft 490 kts 130°
2026-05-09 01:59 41.35968 -85.82517 30868 ft 490 kts 130°
2026-05-09 01:59 41.32326 -85.74847 30869 ft 490 kts 130°
2026-05-09 02:00 41.28676 -85.67193 30869 ft 490 kts 130°
2026-05-09 02:00 41.25010 -85.59549 30839 ft 490 kts 130°
2026-05-09 02:01 41.21343 -85.51917 30849 ft 490 kts 130°
2026-05-09 02:01 41.19530 -85.48126 30586 ft 482 kts 130°
2026-05-09 02:01 41.17743 -85.44388 30239 ft 476 kts 130°
2026-05-09 02:02 41.15973 -85.40705 29841 ft 471 kts 129°
2026-05-09 02:02 41.14215 -85.37054 29375 ft 467 kts 129°
2026-05-09 02:02 41.12472 -85.33444 28924 ft 463 kts 129°
2026-05-09 02:02 41.10736 -85.29861 28497 ft 460 kts 130°
2026-05-09 02:03 41.09013 -85.26309 28062 ft 456 kts 129°
2026-05-09 02:03 41.07292 -85.22770 27639 ft 462 kts 129°
2026-05-09 02:03 41.05525 -85.19158 27215 ft 470 kts 129°
2026-05-09 02:03 41.03751 -85.15521 26805 ft 470 kts 129°
2026-05-09 02:04 41.01988 -85.11887 26379 ft 467 kts 129°
2026-05-09 02:04 41.00247 -85.08285 26038 ft 462 kts 129°
2026-05-09 02:04 40.98517 -85.04719 25678 ft 459 kts 129°
2026-05-09 02:04 40.96791 -85.01177 25333 ft 457 kts 129°
2026-05-09 02:05 40.95071 -84.97656 24999 ft 454 kts 129°
2026-05-09 02:05 40.93359 -84.94156 24658 ft 452 kts 129°
2026-05-09 02:05 40.91660 -84.90683 24326 ft 449 kts 129°
2026-05-09 02:05 40.89966 -84.87230 23999 ft 446 kts 129°
2026-05-09 02:06 40.88280 -84.83797 23672 ft 444 kts 129°
2026-05-09 02:06 40.86605 -84.80391 23329 ft 441 kts 129°
2026-05-09 02:06 40.85107 -84.76913 22962 ft 443 kts 118°
2026-05-09 02:07 40.82771 -84.69375 22889 ft 444 kts 116°
2026-05-09 02:07 40.81605 -84.65608 22886 ft 444 kts 116°
2026-05-09 02:07 40.80431 -84.61829 22887 ft 445 kts 116°
2026-05-09 02:07 40.79255 -84.58056 22887 ft 445 kts 116°
2026-05-09 02:08 40.78076 -84.54278 22879 ft 445 kts 116°
2026-05-09 02:08 40.76897 -84.50497 22896 ft 447 kts 116°
2026-05-09 02:08 40.75717 -84.46702 22895 ft 447 kts 116°
2026-05-09 02:08 40.74540 -84.42908 22896 ft 447 kts 116°
2026-05-09 02:09 40.73365 -84.39126 22892 ft 440 kts 116°
2026-05-09 02:09 40.72211 -84.35422 22902 ft 436 kts 117°
2026-05-09 02:09 40.71054 -84.31738 22902 ft 434 kts 117°
2026-05-09 02:09 40.69893 -84.28053 22629 ft 434 kts 116°
2026-05-09 02:10 40.68743 -84.24399 22279 ft 431 kts 116°
2026-05-09 02:10 40.67600 -84.20766 21936 ft 428 kts 116°
2026-05-09 02:10 40.66462 -84.17157 21589 ft 425 kts 116°
2026-05-09 02:10 40.65330 -84.13575 21227 ft 423 kts 116°
2026-05-09 02:11 40.64191 -84.09976 20872 ft 428 kts 116°
2026-05-09 02:11 40.63044 -84.06357 20519 ft 428 kts 116°
2026-05-09 02:11 40.61898 -84.02755 20170 ft 426 kts 116°
2026-05-09 02:11 40.61126 -84.00327 19932 ft 424 kts 115°
2026-05-09 02:12 40.59997 -83.96768 19592 ft 421 kts 115°
2026-05-09 02:12 40.58870 -83.93222 19234 ft 418 kts 115°
2026-05-09 02:12 40.57755 -83.89709 18871 ft 415 kts 115°
2026-05-09 02:12 40.56648 -83.86218 18515 ft 413 kts 115°
2026-05-09 02:13 40.55542 -83.82741 18170 ft 410 kts 115°
2026-05-09 02:13 40.54442 -83.79300 17770 ft 407 kts 115°
2026-05-09 02:13 40.53350 -83.75890 17373 ft 404 kts 115°
2026-05-09 02:13 40.52263 -83.72501 16974 ft 401 kts 115°
2026-05-09 02:14 40.51184 -83.69140 16582 ft 398 kts 115°
2026-05-09 02:14 40.50113 -83.65813 16199 ft 395 kts 115°
2026-05-09 02:14 40.49047 -83.62505 15814 ft 392 kts 115°
2026-05-09 02:14 40.47989 -83.59219 15438 ft 389 kts 115°
2026-05-09 02:15 40.46940 -83.55961 15063 ft 386 kts 115°
2026-05-09 02:15 40.45896 -83.52728 14691 ft 383 kts 115°
2026-05-09 02:15 40.44858 -83.49520 14327 ft 380 kts 116°
2026-05-09 02:15 40.43570 -83.46535 13974 ft 373 kts 129°
2026-05-09 02:16 40.42045 -83.43796 13681 ft 371 kts 130°
2026-05-09 02:16 40.40523 -83.41074 13372 ft 369 kts 130°
2026-05-09 02:16 40.39008 -83.38370 13056 ft 367 kts 130°
2026-05-09 02:16 40.37500 -83.35683 12739 ft 365 kts 130°
2026-05-09 02:17 40.35994 -83.33001 12424 ft 363 kts 130°
2026-05-09 02:17 40.34496 -83.30343 12140 ft 362 kts 130°
2026-05-09 02:17 40.33006 -83.27699 11850 ft 360 kts 130°
2026-05-09 02:17 40.31485 -83.25106 11579 ft 356 kts 137°
2026-05-09 02:18 40.29665 -83.22977 11306 ft 348 kts 147°
2026-05-09 02:18 40.27789 -83.21017 11029 ft 341 kts 147°
2026-05-09 02:18 40.25953 -83.19105 10747 ft 334 kts 147°
2026-05-09 02:18 40.24152 -83.17229 10480 ft 328 kts 148°
2026-05-09 02:19 40.22380 -83.15386 10211 ft 323 kts 148°
2026-05-09 02:19 40.20669 -83.13516 9948 ft 321 kts 141°
2026-05-09 02:19 40.19307 -83.11239 9698 ft 321 kts 128°
2026-05-09 02:19 40.18115 -83.08800 9395 ft 307 kts 128°
2026-05-09 02:20 40.17003 -83.06525 9109 ft 295 kts 128°
2026-05-09 02:20 40.15894 -83.04306 8755 ft 288 kts 130°
2026-05-09 02:20 40.14774 -83.02163 8369 ft 282 kts 131°
2026-05-09 02:20 40.13669 -83.00086 7984 ft 275 kts 131°
2026-05-09 02:21 40.12575 -82.98040 7585 ft 268 kts 131°
2026-05-09 02:21 40.11508 -82.96048 7221 ft 266 kts 131°
2026-05-09 02:21 40.10450 -82.94095 6973 ft 260 kts 133°
2026-05-09 02:21 40.09497 -82.92086 6726 ft 261 kts 121°
2026-05-09 02:22 40.08958 -82.89884 6479 ft 257 kts 104°
2026-05-09 02:22 40.08792 -82.87558 6231 ft 257 kts 98°
2026-05-09 02:22 40.08673 -82.85205 5864 ft 255 kts 98°
2026-05-09 02:22 40.08562 -82.82938 5511 ft 253 kts 98°
2026-05-09 02:23 40.08450 -82.80634 5154 ft 255 kts 98°
2026-05-09 02:23 40.08339 -82.78332 4742 ft 252 kts 98°
2026-05-09 02:23 40.08228 -82.76046 4336 ft 247 kts 97°
2026-05-09 02:23 40.08121 -82.73860 3930 ft 243 kts 96°
2026-05-09 02:24 40.08014 -82.71672 3529 ft 241 kts 96°
2026-05-09 02:24 40.07906 -82.69493 3132 ft 241 kts 95°
2026-05-09 02:24 40.07685 -82.67356 2980 ft 234 kts 113°
2026-05-09 02:24 40.06771 -82.65680 3001 ft 225 kts 147°
2026-05-09 02:25 40.05361 -82.64952 3006 ft 216 kts 176°
2026-05-09 02:25 40.03887 -82.64806 3002 ft 209 kts 181°
2026-05-09 02:25 40.02459 -82.64924 2993 ft 202 kts 203°
2026-05-09 02:25 40.01381 -82.65983 2999 ft 195 kts 238°
2026-05-09 02:26 40.01024 -82.67665 3011 ft 196 kts 265°
2026-05-09 02:26 40.00783 -82.69400 3007 ft 195 kts 243°
2026-05-09 02:26 40.00056 -82.70890 3009 ft 196 kts 233°
2026-05-09 02:26 39.99303 -82.72361 3001 ft 195 kts 243°
2026-05-09 02:27 39.99137 -82.74084 2873 ft 197 kts 281°
2026-05-09 02:27 39.99462 -82.75779 2687 ft 187 kts 275°
2026-05-09 02:27 39.99568 -82.77422 2421 ft 176 kts 272°
2026-05-09 02:27 39.99650 -82.78948 2189 ft 161 kts 273°
2026-05-09 02:28 39.99728 -82.80353 2010 ft 151 kts 273°
2026-05-09 02:28 39.99804 -82.81684 1798 ft 143 kts 274°
2026-05-09 02:28 39.99877 -82.82967 1605 ft 142 kts 275°
2026-05-09 02:28 39.99950 -82.84251 1414 ft 142 kts 276°
2026-05-09 02:29 40.00023 -82.85537 1224 ft 142 kts 276°
2026-05-09 02:29 40.00097 -82.86827 1033 ft 143 kts 277°
2026-05-09 02:29 40.00172 -82.88120 837 ft 143 kts 278°
2026-05-09 02:29 40.00239 -82.89186 817 ft 86 kts 270°
2026-05-09 02:30 40.00256 -82.89647 817 ft 30 kts 275°
2026-05-09 02:30 40.00222 -82.89759 820 ft 10 kts 188°
2026-05-09 02:30 40.00204 -82.89762 815 ft 0 kts 185°
2026-05-09 02:31 40.00203 -82.89762 820 ft 1 kts 185°
2026-05-09 02:31 40.00200 -82.89762 820 ft 1 kts 185°
2026-05-09 02:31 40.00154 -82.89681 819 ft 35 kts 100°
2026-05-09 02:31 40.00150 -82.89460 819 ft 22 kts 93°
2026-05-09 02:32 40.00139 -82.89254 819 ft 24 kts 94°
2026-05-09 02:32 40.00128 -82.89034 821 ft 25 kts 94°
2026-05-09 02:32 40.00116 -82.88833 821 ft 20 kts 94°
2026-05-09 02:32 40.00099 -82.88677 821 ft 11 kts 115°
2026-05-09 02:33 40.00024 -82.88657 823 ft 14 kts 194°
2026-05-09 02:33 39.99970 -82.88673 821 ft 0 kts 162°